Atlanta, GA

1:30 PM EST on December 14, 2019 (GMT -0500)
The Hartsfield Atlanta International

Weather History for KATL - October, 2019

Change the Weather History Date:

Tuesday, October 29, 2019

  Actual Average Record
Temperature  
Mean Temperature 65 °F 60 °F  
Max Temperature 71 °F 69 °F 85 °F (1996)
Min Temperature 59 °F 50 °F 28 °F (1976)
Degree Days  
Heating Degree Days 0 6  
Month to date heating degree days 44 103  
Since 1 July heating degree days 44 114  
Cooling Degree Days 0 1  
Month to date cooling degree days 161 65  
Year to date cooling degree days 2638 1870  
Growing Degree Days 15 (Base 50)    
Moisture  
Dew Point 59 °F    
Average Humidity 79    
Maximum Humidity 90    
Minimum Humidity 68    
Precipitation  
Precipitation 0.04 in 0.10 in 2.52 in (1970)
Month to date precipitation 2.69 3.22  
Year to date precipitation 35.02 41.52  
Sea Level Pressure  
Sea Level Pressure 30.14 in    
Wind  
Wind Speed 5 mph ()    
Max Wind Speed 13 mph    
Max Gust Speed 14 mph    
Visibility 8.5 miles    
Events Rain    
T = Trace of Precipitation, MM = Missing Value Source: Averaged Metar Reports

Daily Weather History Graph

Daily Weather History Graph

Search for Another Location

Airport or City:

Astronomy

Oct. 29, 2019 Rise Set
Actual Time 7:53 AM EDT 6:48 PM EDT
Civil Twilight 7:28 AM EDT 7:14 PM EDT
Nautical Twilight 6:58 AM EDT 7:43 PM EDT
Astronomical Twilight 6:29 AM EDT 8:12 PM EDT
Moon 9:23 AM EDT (10/29) 8:16 PM EDT (10/29)
Length of Visible Light 11h 45m
Length of Day
10h 54m
Waxing Crescent, 3% of the Moon is Illuminated
Oct 29
Waxing Crescent
Nov 4
First Quarter
Nov 12
Full
Nov 19
Last Quarter
Nov 26
New

Hourly Weather History & Observations

Time (EDT) Temp. Dew Point Humidity Pressure Visibility Wind Dir Wind Speed Gust Speed Precip Events Conditions
12:52 AM 62.1 °F 55.0 °F 78% 30.09 in 10.0 mi Calm Calm - N/A   Scattered Clouds
1:52 AM 61.0 °F 54.0 °F 78% 30.09 in 10.0 mi East 4.6 mph - N/A   Scattered Clouds
2:52 AM 60.1 °F 54.0 °F 80% 30.09 in 10.0 mi East 4.6 mph - N/A   Scattered Clouds
4:52 AM 59.0 °F 54.0 °F 83% 30.09 in 10.0 mi East 5.8 mph - N/A   Scattered Clouds
5:52 AM 60.1 °F 54.0 °F 80% 30.09 in 10.0 mi East 4.6 mph - N/A   Mostly Cloudy
6:52 AM 61.0 °F 54.0 °F 78% 30.10 in 10.0 mi ENE 8.1 mph - N/A   Mostly Cloudy
7:52 AM 62.1 °F 54.0 °F 75% 30.11 in 10.0 mi East 3.5 mph - N/A   Mostly Cloudy
8:52 AM 63.0 °F 54.0 °F 72% 30.13 in 10.0 mi East 4.6 mph - N/A   Mostly Cloudy
9:52 AM 64.9 °F 55.0 °F 70% 30.16 in 10.0 mi East 5.8 mph - N/A   Overcast
10:52 AM 66.0 °F 55.9 °F 70% 30.18 in 10.0 mi East 3.5 mph - N/A   Overcast
11:52 AM 66.9 °F 57.0 °F 70% 30.17 in 10.0 mi East 6.9 mph - N/A   Mostly Cloudy
12:52 PM 68.0 °F 57.9 °F 70% 30.17 in 10.0 mi SE 4.6 mph - N/A   Mostly Cloudy
1:06 PM 68.0 °F 60.1 °F 76% 30.17 in 3.0 mi SE 5.8 mph - 0.01 in Rain Rain
1:11 PM 66.9 °F 60.1 °F 79% 30.17 in 9.0 mi SE 4.6 mph - 0.01 in Rain Light Rain
1:52 PM 66.9 °F 60.1 °F 79% 30.15 in 10.0 mi SSE 4.6 mph - 0.01 in   Overcast
2:15 PM 68.0 °F 60.1 °F 76% 30.15 in 10.0 mi SSE 4.6 mph - N/A   Overcast
2:52 PM 69.1 °F 61.0 °F 75% 30.13 in 10.0 mi SSE 5.8 mph - N/A   Overcast
3:52 PM 70.0 °F 62.1 °F 76% 30.13 in 10.0 mi ESE 4.6 mph - N/A   Overcast
4:52 PM 69.1 °F 61.0 °F 75% 30.14 in 10.0 mi SE 10.4 mph - N/A   Overcast
5:45 PM 68.0 °F 62.1 °F 81% 30.15 in 10.0 mi SE 9.2 mph - N/A   Overcast
5:52 PM 68.0 °F 62.1 °F 81% 30.14 in 10.0 mi ESE 9.2 mph - N/A   Overcast
6:52 PM 68.0 °F 63.0 °F 84% 30.14 in 10.0 mi East 9.2 mph - N/A   Overcast
7:52 PM 66.9 °F 63.0 °F 87% 30.14 in 10.0 mi East 9.2 mph - N/A   Overcast
8:52 PM 66.9 °F 63.0 °F 87% 30.14 in 10.0 mi East 11.5 mph - N/A   Overcast
9:52 PM 66.0 °F 63.0 °F 90% 30.15 in 3.0 mi East 8.1 mph - 0.00 in Rain Light Rain
10:55 PM 66.0 °F 63.0 °F 90% 30.18 in 1.0 mi East 10.4 mph - 0.00 in Rain Light Rain
11:08 PM 66.0 °F 63.0 °F 90% 30.18 in 0.5 mi East 9.2 mph - 0.00 in Rain Light Rain
11:52 PM 66.0 °F 63.0 °F 90% 30.15 in 0.5 mi East 5.8 mph - 0.03 in Rain Light Rain